Flag for Micronesia Weather past 2 weeks in Palikir, Ponape, Micronesia

Now
87 °F

More clouds than sun.


Feels Like: 99 °F
Forecast: 74 / 87 °F
Wind: 7 mph from Southwest

Location: Pohnpei

Current Time: Aug 2, 2014 at 5:43:07 PM

Latest Report: Aug 2, 2014 at 4:50 PM


Visibility: 15 mi

Pressure: 29.82 "Hg

Humidity: 73%

Dew point: 78 °F

Location of PalikirLocation

Historic Weather in Palikir — Graph

°F

Palikir temperature yesterday

Maximum temperature yesterday: 90 °F (at 12:50 PM)
Minimum temperature yesterday: 75 °F (at 5:52 AM)
Average temperature yesterday: 79 °F

Past Weeks' High & Low Weather Summary

 TemperatureHumidityPressure
High91 °F (Jul 29, 12:52 PM)99% (Jul 20, 4:54 AM)29.94 "Hg (Jul 20, 4:54 AM)
Low74 °F (Jul 29, 4:53 AM)57% (Jul 29, 12:52 PM)29.75 "Hg (Jul 23, 3:55 AM)
Average80 °F88%29.84 "Hg
* Reported Jul 18 3:58 PM — Aug 2 3:53 PM, Palikir, Weather by CustomWeather, © 2014

Note: Actual official high and low records may vary slightly from our data, if they occured in-between our weather recording intervals... More about our weather records

Advertising

Palikir weather history for previous 24 hours

 ConditionsComfort  
Time TempWeatherWind HumidityBarometerVisibility
3:53 PM
Aug 2
89 °FMore clouds than sun.6 mph70%29.81 "Hg15 mi
2:53 PM89 °FBroken clouds.6 mph67%29.82 "Hg15 mi
1:52 PM87 °FCloudy.5 mph71%29.84 "Hg15 mi
12:50 PM87 °FMore clouds than sun.6 mph72%29.87 "Hg15 mi
11:53 AM87 °FCloudy.6 mph72%29.88 "Hg15 mi
10:52 AM85 °FCloudy.2 mph77%29.90 "Hg15 mi
9:51 AM85 °FCloudy.6 mph76%29.91 "Hg15 mi
8:55 AM85 °FBroken clouds.3 mph77%29.90 "Hg15 mi
7:53 AM82 °FPartly sunny.3 mph84%29.88 "Hg15 mi
6:53 AM78 °FMostly cloudy.5 mph94%29.86 "Hg15 mi
5:53 AM76 °FMostly cloudy.5 mph96%29.85 "Hg15 mi
4:54 AM76 °FMostly cloudy.3 mph94%29.85 "Hg15 mi
3:52 AM76 °FMostly cloudy.3 mph97%29.85 "Hg15 mi
2:53 AM76 °FMostly cloudy.3 mph95%29.86 "Hg15 mi
1:54 AM76 °FMostly cloudy.3 mph97%29.86 "Hg15 mi
12:53 AM75 °FMostly cloudy.3 mph95%29.88 "Hg15 mi
10:54 PM
Aug 1
77 °FMostly cloudy.6 mph95%29.91 "Hg15 mi
9:53 PM77 °FMostly cloudy.5 mph93%29.90 "Hg15 mi
8:51 PM76 °FMostly cloudy.5 mph96%29.90 "Hg15 mi
7:54 PM76 °FSprinkles. Mostly cloudy.3 mph96%29.89 "Hg12 mi
6:54 PM76 °FSprinkles. Mostly cloudy.3 mph96%29.86 "Hg12 mi
5:51 PM76 °FSprinkles. Mostly cloudy.6 mph96%29.85 "Hg12 mi
Weather by CustomWeather, © 2014

See weather overviewHow to use our weather pages